Location: �mondeville
(49.4591°N, 1.3431°W)
Time: 00:50:16
(UTC+00:00)

MOS 1-B - Pass Details

Date: 22 October 2019
Orbit: 906 x 913 km, 99.4° (Epoch: 16 November)

Event Time Altitude Azimuth Distance (km) Brightness Sun altitude
Rises 05:38:13 0° 14° (NNE) 3,560 7.6 -10.2°
Reaches altitude 10° 05:40:39 10° 13° (NNE) 2,614 6.9 -9.8°
Maximum altitude 05:46:27 74° 290° (WNW) 954 4.3 -8.9°
Drops below altitude 10° 05:52:14 10° 206° (SSW) 2,596 6.6 -7.9°
Sets 05:54:38 0° 205° (SSW) 3,533 7.3 -7.6°
